sat.trackr.live / text

‹ back to catalog

KUIPER-00048

NORAD 64508 · 2025-134J

PAYLOAD ACTIVE UNKNOWN

§ Identity

Operator
Country
US
Launch date
2025-06-23
Launch site
AFETR
Launch vehicle
Mass (kg)
RCS (m²)

External: N2YO · Heavens-Above · Gunter

§ Orbital elements

Epoch: 2026-09-21T19:45:35.592768Z

Period
97.30 min
Inclination
51.8987°
Eccentricity
0.0000649
Mean motion
14.79935706 rev/d
Perigee alt
629.1 km
Apogee alt
630.0 km
Semi-major
7,007.7 km
B*
2.9884e-4
RAAN
68.2584°
Arg perigee
101.0369°
Mean anomaly
259.0666°
Rev number
6,936

§ Raw data

KUIPER-000481 64508U 25134J   26264.82332862  .00002058  00000+0  29884-3 0  99902 64508  51.8987  68.2584 0000649 101.0369 259.0666 14.79935706 69364

JSON: /api/v1/satellites/64508 · /tle

For live sub-satellite position, see the globe view (requires WebGL).

§ Visibility from observer

Set your observer location to see the next 7 days of passes ≥ 10°. The values pass through the URL so the page stays shareable.

No JS? Fill the form by hand. The geolocation button needs JavaScript.